�N����,����,�~����,�C��,���x,�C��,����,���ϕ���,�ő�u�ԕ���,�ő厞����,���˗�,�I�_���x,�n�����x,�ő啗���N��,DTYPE
"20/04/29","00:10",0.0,7.3,62.2,1014.5,293.2,2.0,3.4,322.1,0.00,0.6,12.8,"00:03:52",1
"20/04/29","00:20",0.0,7.0,63.7,1014.7,275.9,0.7,2.4,319.1,0.00,0.6,12.8,"00:18:16",1
"20/04/29","00:30",0.0,6.8,65.4,1014.2,314.2,2.1,2.9,324.9,0.00,0.8,12.7,"00:26:40",1
"20/04/29","00:40",0.0,6.3,67.2,1014.7,301.3,1.8,2.6,312.0,0.00,0.7,12.6,"00:33:44",1
"20/04/29","00:50",0.0,6.2,68.4,1014.2,299.0,2.1,2.8,331.5,0.00,0.9,12.7,"00:44:16",1
"20/04/29","01:00",0.0,6.3,68.2,1014.2,299.6,1.8,2.6,300.3,0.00,0.9,12.7,"00:55:20",1
"20/04/29","01:10",0.0,6.2,68.0,1014.0,294.2,1.7,2.0,291.0,0.00,0.8,12.5,"01:07:04",1
"20/04/29","01:20",0.0,6.1,68.2,1014.5,306.6,1.8,2.5,321.3,0.00,0.7,12.3,"01:16:48",1
"20/04/29","01:30",0.0,5.9,68.6,1014.2,295.7,1.8,2.6,306.6,0.00,0.6,12.4,"01:26:16",1
"20/04/29","01:40",0.0,5.9,68.7,1014.0,287.9,1.8,2.1,297.6,0.00,0.6,12.3,"01:34:08",1
"20/04/29","01:50",0.0,5.8,68.8,1014.0,303.3,2.1,2.5,318.4,0.00,0.6,12.2,"01:46:08",1
"20/04/29","02:00",0.0,5.7,69.2,1014.2,318.8,2.0,2.7,325.0,0.00,0.5,12.1,"01:50:40",1
"20/04/29","02:10",0.0,5.6,69.9,1014.0,306.6,2.2,2.7,318.9,0.00,0.6,12.0,"02:03:20",1
"20/04/29","02:20",0.0,5.8,69.8,1014.2,302.3,2.1,3.1,321.0,0.00,0.8,12.1,"02:13:44",1
"20/04/29","02:30",0.0,5.8,69.6,1014.2,310.9,1.8,2.5,326.4,0.00,0.7,12.0,"02:20:08",1
"20/04/29","02:40",0.0,5.3,70.3,1014.2,320.9,2.3,3.3,323.3,0.00,0.4,12.0,"02:36:32",1
"20/04/29","02:50",0.0,5.0,71.2,1013.8,319.5,1.7,2.2,319.4,0.00,0.3,11.8,"02:42:48",1
"20/04/29","03:00",0.0,5.0,71.7,1014.2,314.2,1.7,2.1,323.3,0.00,0.4,11.8,"02:53:12",1
"20/04/29","03:10",0.0,5.1,72.1,1014.5,316.7,1.8,2.4,324.3,0.00,0.5,11.8,"03:06:18",1
"20/04/29","03:20",0.0,5.1,72.4,1014.0,306.5,1.2,2.0,312.1,0.00,0.6,11.8,"03:10:48",1
"20/04/29","03:30",0.0,5.0,72.6,1014.0,314.7,2.0,3.2,323.1,0.00,0.5,11.8,"03:27:30",1
"20/04/29","03:40",0.0,4.6,73.3,1013.8,316.2,2.1,2.7,312.2,0.00,0.3,11.7,"03:37:44",1
"20/04/29","03:50",0.0,4.5,73.8,1014.0,311.3,2.0,2.2,318.7,0.00,0.3,11.7,"03:45:14",1
"20/04/29","04:00",0.0,4.5,74.3,1014.2,310.4,1.5,2.1,339.2,0.00,0.4,11.6,"03:57:50",1
"20/04/29","04:10",0.0,4.4,74.7,1014.2,312.4,2.1,2.6,321.6,0.00,0.3,11.5,"04:01:20",1
"20/04/29","04:20",0.0,4.4,75.3,1014.0,300.4,1.7,2.7,310.4,0.00,0.5,11.5,"04:18:32",1
"20/04/29","04:30",0.0,4.5,75.4,1014.5,302.3,1.5,2.1,311.0,0.00,0.6,11.5,"04:22:16",1
"20/04/29","04:40",0.0,4.1,76.1,1014.2,324.0,2.6,3.1,322.8,0.00,0.3,11.5,"04:35:28",1
"20/04/29","04:50",0.0,3.9,77.1,1014.2,319.5,2.1,2.5,325.6,0.00,0.3,11.6,"04:40:16",1
"20/04/29","05:00",0.0,4.0,77.8,1014.5,313.0,2.0,2.7,323.0,0.00,0.5,11.5,"04:55:26",1
"20/04/29","05:10",0.0,3.9,78.2,1014.2,285.3,1.1,1.9,319.3,0.00,0.5,11.3,"05:00:18",1
"20/04/29","05:20",0.0,3.9,78.8,1014.2,293.0,1.2,2.5,317.8,0.00,0.6,11.3,"05:19:00",1
"20/04/29","05:30",0.0,3.9,79.3,1014.2,306.9,1.8,2.7,310.8,0.00,0.7,11.0,"05:20:32",1
"20/04/29","05:40",0.0,3.9,79.8,1014.5,278.3,1.0,1.4,284.9,0.00,0.8,11.2,"05:35:46",1
"20/04/29","05:50",0.0,4.1,80.4,1014.7,297.9,1.7,2.5,311.5,0.00,1.1,11.2,"05:48:56",1
"20/04/29","06:00",0.0,4.9,81.0,1014.5,310.7,1.7,2.2,315.7,0.01,2.0,11.1,"05:50:08",1
"20/04/29","06:10",0.0,6.1,81.1,1015.2,287.1,0.7,1.6,327.1,0.02,3.1,11.1,"06:09:36",1
"20/04/29","06:20",0.0,7.0,80.5,1015.4,315.2,1.5,2.1,317.6,0.04,3.9,11.2,"06:16:00",1
"20/04/29","06:30",0.0,7.7,79.4,1015.6,309.7,1.1,2.4,310.9,0.05,4.4,11.3,"06:21:20",1
"20/04/29","06:40",0.0,8.8,77.7,1016.4,312.7,1.0,1.6,317.2,0.07,5.2,11.3,"06:35:44",1
"20/04/29","06:50",0.0,9.5,74.7,1016.1,276.7,0.5,1.1,302.7,0.09,5.3,11.3,"06:42:08",1
"20/04/29","07:00",0.0,10.3,70.5,1016.6,302.4,0.7,1.3,321.2,0.11,5.2,11.3,"06:50:48",1
"20/04/29","07:10",0.0,11.0,65.4,1016.6,329.2,0.8,1.7,305.4,0.14,4.8,11.4,"07:01:20",1
"20/04/29","07:20",0.0,11.3,62.4,1016.8,290.8,0.5,1.1,112.5,0.16,4.4,11.7,"07:19:12",1
"20/04/29","07:30",0.0,11.9,58.4,1016.8,340.4,0.5,1.0,341.2,0.19,4.0,11.8,"07:29:44",1
"20/04/29","07:40",0.0,12.3,52.5,1016.8,347.6,0.8,1.8,334.7,0.22,2.9,12.0,"07:32:08",1
"20/04/29","07:50",0.0,13.0,49.0,1016.8,220.1,0.3,1.1,155.5,0.24,2.6,12.1,"07:40:08",1
"20/04/29","08:00",0.0,13.7,47.2,1016.8,256.5,0.5,1.1,239.8,0.27,2.7,12.2,"07:50:24",1
"20/04/29","08:10",0.0,14.3,43.9,1016.8,202.5,0.5,1.2,129.1,0.30,2.2,12.3,"08:01:04",1
"20/04/29","08:20",0.0,14.6,43.3,1016.6,218.4,1.1,2.0,228.7,0.32,2.3,12.3,"08:14:56",1
"20/04/29","08:30",0.0,14.9,40.9,1016.1,195.8,1.0,1.9,165.1,0.35,1.8,12.7,"08:25:12",1
"20/04/29","08:40",0.0,15.4,41.2,1016.4,206.7,1.1,2.5,149.4,0.37,2.3,12.8,"08:30:24",1
"20/04/29","08:50",0.0,15.8,39.3,1016.4,182.2,1.0,2.1,97.9,0.40,2.0,13.1,"08:45:28",1
"20/04/29","09:00",0.0,15.8,40.1,1016.4,184.4,1.3,2.8,149.3,0.42,2.3,13.2,"08:55:44",1
"20/04/29","09:10",0.0,16.2,40.2,1016.1,167.1,1.2,2.5,184.5,0.44,2.7,13.2,"09:01:12",1
"20/04/29","09:20",0.0,16.6,41.6,1016.1,188.5,1.2,3.1,147.4,0.46,3.6,13.3,"09:11:52",1
"20/04/29","09:30",0.0,17.0,41.8,1015.9,198.9,1.3,2.8,202.2,0.48,4.0,13.8,"09:28:16",1
"20/04/29","09:40",0.0,17.4,42.2,1015.6,192.5,1.2,3.1,221.3,0.49,4.5,14.1,"09:39:04",1
"20/04/29","09:50",0.0,18.1,44.4,1016.1,181.4,1.2,2.7,121.8,0.51,5.8,14.2,"09:45:04",1
"20/04/29","10:00",0.0,18.2,41.5,1015.6,152.0,1.3,3.4,129.3,0.52,5.0,14.4,"09:51:28",1
"20/04/29","10:10",0.0,18.5,42.9,1015.6,192.4,1.8,3.9,203.6,0.54,5.7,14.5,"10:07:52",1
"20/04/29","10:20",0.0,18.8,41.7,1015.9,158.0,2.0,3.5,129.8,0.55,5.6,15.0,"10:16:40",1
"20/04/29","10:30",0.0,18.9,42.4,1015.6,145.0,2.0,4.1,123.5,0.56,5.9,15.0,"10:22:40",1
"20/04/29","10:40",0.0,19.5,41.8,1015.4,140.7,1.5,3.3,121.1,0.57,6.2,15.2,"10:36:48",1
"20/04/29","10:50",0.0,19.9,41.5,1015.2,169.7,1.7,2.8,142.7,0.58,6.5,15.5,"10:40:08",1
"20/04/29","11:00",0.0,20.0,39.4,1014.7,204.2,1.8,3.9,164.1,0.59,5.8,15.5,"10:59:28",1
"20/04/29","11:10",0.0,20.6,39.3,1014.9,161.4,1.5,2.8,126.6,0.59,6.3,15.9,"11:02:16",1
"20/04/29","11:20",0.0,20.7,40.0,1014.5,162.5,2.2,4.9,135.1,0.60,6.7,16.0,"11:15:36",1
"20/04/29","11:30",0.0,20.7,38.8,1014.7,160.3,2.1,4.2,222.3,0.60,6.2,16.2,"11:29:12",1
"20/04/29","11:40",0.0,21.2,40.3,1014.2,156.3,2.6,5.6,171.6,0.60,7.2,16.6,"11:34:16",1
"20/04/29","11:50",0.0,21.8,39.5,1014.2,174.4,2.3,4.7,160.4,0.61,7.5,16.8,"11:49:28",1
"20/04/29","12:00",0.0,22.0,38.8,1014.0,141.1,2.8,5.1,126.1,0.61,7.4,17.1,"11:57:28",1
"20/04/29","12:10",0.0,22.4,36.2,1013.8,158.5,3.0,5.2,193.1,0.61,6.7,17.2,"12:04:24",1
"20/04/29","12:20",0.0,22.5,37.4,1013.5,144.8,2.7,4.8,122.7,0.60,7.3,17.3,"12:14:00",1
"20/04/29","12:30",0.0,22.9,35.5,1013.5,160.2,2.2,4.1,121.0,0.60,6.9,17.3,"12:27:36",1
"20/04/29","12:40",0.0,23.2,36.1,1013.0,153.9,2.8,5.1,165.0,0.60,7.4,17.6,"12:31:52",1
"20/04/29","12:50",0.0,22.7,35.5,1013.0,139.2,3.0,6.2,173.5,0.59,6.7,17.6,"12:47:36",1
"20/04/29","13:00",0.0,22.9,37.0,1013.0,177.4,3.0,4.8,220.2,0.58,7.5,17.8,"12:53:52",1
"20/04/29","13:10",0.0,23.1,35.6,1012.8,179.1,3.1,5.6,209.3,0.57,7.1,18.1,"13:05:12",1
"20/04/29","13:20",0.0,23.3,35.4,1012.8,171.6,2.5,5.5,189.3,0.56,7.2,17.8,"13:19:28",1
"20/04/29","13:30",0.0,23.3,36.5,1012.8,169.1,3.2,5.8,137.1,0.55,7.6,17.8,"13:27:52",1
"20/04/29","13:40",0.0,23.1,35.8,1012.8,136.9,3.5,5.6,126.4,0.54,7.2,18.0,"13:32:24",1
"20/04/29","13:50",0.0,23.4,36.1,1012.6,165.3,3.2,6.0,150.8,0.53,7.6,18.0,"13:44:16",1
"20/04/29","14:00",0.0,23.5,35.6,1012.6,169.4,3.2,5.9,125.6,0.51,7.5,18.0,"13:57:36",1
"20/04/29","14:10",0.0,23.6,36.3,1012.6,188.1,3.5,6.4,212.6,0.50,7.8,18.0,"14:02:56",1
"20/04/29","14:20",0.0,23.6,34.8,1012.1,175.7,3.0,4.9,173.4,0.48,7.2,18.0,"14:18:08",1
"20/04/29","14:30",0.0,23.6,34.8,1012.1,166.2,3.2,5.4,190.0,0.46,7.2,18.2,"14:23:12",1
"20/04/29","14:40",0.0,24.0,34.7,1011.6,188.2,2.5,4.7,200.7,0.44,7.5,17.9,"14:36:16",1
"20/04/29","14:50",0.0,23.9,34.8,1011.6,195.2,3.0,5.6,195.4,0.42,7.5,18.1,"14:45:36",1
"20/04/29","15:00",0.0,23.4,34.6,1011.6,194.8,3.7,5.8,157.8,0.40,7.0,18.2,"14:59:04",1
"20/04/29","15:10",0.0,23.2,34.2,1011.6,165.6,3.5,6.5,157.3,0.38,6.6,18.2,"15:06:56",1
"20/04/29","15:20",0.0,23.3,34.0,1011.9,172.2,3.4,6.0,180.3,0.36,6.6,18.2,"15:12:00",1
"20/04/29","15:30",0.0,23.6,33.3,1011.6,189.4,2.5,4.7,193.4,0.33,6.6,18.2,"15:29:12",1
"20/04/29","15:40",0.0,23.6,33.2,1011.6,203.4,2.6,5.2,184.0,0.31,6.5,18.3,"15:32:00",1
"20/04/29","15:50",0.0,23.2,32.9,1011.6,197.5,3.0,6.0,179.9,0.29,6.0,18.1,"15:48:16",1
"20/04/29","16:00",0.0,23.4,33.6,1011.9,191.4,2.6,4.4,173.5,0.26,6.5,18.1,"15:52:32",1
"20/04/29","16:10",0.0,23.4,32.5,1011.9,224.7,2.0,4.1,231.3,0.24,6.0,18.1,"16:04:08",1
"20/04/29","16:20",0.0,22.9,31.9,1011.9,190.1,2.7,4.8,187.7,0.21,5.3,17.9,"16:17:52",1
"20/04/29","16:30",0.0,22.8,32.1,1012.1,179.2,2.7,4.7,190.7,0.19,5.3,17.9,"16:22:08",1
"20/04/29","16:40",0.0,22.6,32.1,1011.6,194.0,3.0,5.7,224.3,0.16,5.2,18.0,"16:39:28",1
"20/04/29","16:50",0.0,22.6,31.5,1011.6,192.2,2.7,4.7,180.0,0.14,4.9,17.9,"16:47:52",1
"20/04/29","17:00",0.0,22.5,32.1,1012.1,200.6,2.2,4.1,185.0,0.12,5.1,17.7,"16:56:40",1
"20/04/29","17:10",0.0,22.3,31.7,1012.1,186.2,2.3,4.3,200.8,0.09,4.7,17.7,"17:03:20",1
"20/04/29","17:20",0.0,22.1,32.0,1012.3,206.1,1.7,3.7,207.3,0.07,4.7,17.6,"17:11:12",1
"20/04/29","17:30",0.0,21.9,31.8,1012.3,222.9,1.7,4.2,234.3,0.05,4.4,17.6,"17:23:36",1
"20/04/29","17:40",0.0,21.7,31.4,1012.6,244.1,1.6,3.6,231.6,0.02,4.1,17.5,"17:37:44",1
"20/04/29","17:50",0.0,21.3,32.3,1012.6,272.4,1.1,1.9,314.3,0.01,4.1,17.3,"17:42:48",1
"20/04/29","18:00",0.0,21.0,32.8,1012.6,273.7,1.1,2.2,236.6,0.01,4.1,17.1,"17:59:52",1
"20/04/29","18:10",0.0,20.7,35.6,1012.6,291.2,1.0,2.2,346.0,0.00,5.0,17.1,"18:08:40",1
"20/04/29","18:20",0.0,19.7,41.0,1013.0,341.9,1.1,2.0,340.7,0.00,6.1,16.9,"18:10:56",1
"20/04/29","18:30",0.0,18.7,42.3,1013.3,319.8,0.7,1.6,326.6,0.00,5.7,16.9,"18:20:48",1
"20/04/29","18:40",0.0,17.9,45.0,1013.0,286.1,1.1,1.7,340.7,0.00,5.9,16.8,"18:39:52",1
"20/04/29","18:50",0.0,17.2,47.8,1013.8,299.5,1.2,1.8,342.4,0.00,6.1,16.7,"18:42:40",1
"20/04/29","19:00",0.0,16.7,49.9,1013.8,296.4,1.3,2.4,313.8,0.00,6.2,16.7,"18:50:02",1
"20/04/29","19:10",0.0,16.5,51.0,1013.5,327.7,2.7,4.0,333.1,0.00,6.4,16.5,"19:08:40",1
"20/04/29","19:20",0.0,16.4,51.5,1013.8,327.9,2.5,3.4,342.9,0.00,6.4,16.4,"19:11:20",1
"20/04/29","19:30",0.0,16.0,52.9,1014.0,297.5,1.5,2.2,323.0,0.00,6.4,16.4,"19:21:12",1
"20/04/29","19:40",0.0,15.4,54.2,1014.0,288.8,1.3,2.1,308.3,0.00,6.2,16.2,"19:35:04",1
"20/04/29","19:50",0.0,15.1,55.1,1014.2,300.7,1.2,1.8,337.7,0.00,6.2,16.2,"19:45:44",1
"20/04/29","20:00",0.0,14.8,57.3,1014.7,299.0,1.5,2.0,262.1,0.00,6.5,16.1,"19:57:04",1
"20/04/29","20:10",0.0,14.6,58.0,1014.7,287.4,1.5,2.8,325.2,0.00,6.5,15.9,"20:00:32",1
"20/04/29","20:20",0.0,14.6,57.7,1014.7,287.6,1.3,2.4,266.2,0.00,6.4,15.8,"20:18:32",1
"20/04/29","20:30",0.0,14.5,57.9,1015.2,289.8,1.2,1.8,256.8,0.00,6.4,15.7,"20:22:24",1
"20/04/29","20:40",0.0,14.5,58.8,1014.9,320.5,1.1,2.1,277.9,0.00,6.6,15.6,"20:30:24",1
"20/04/29","20:50",0.0,14.0,60.6,1014.9,323.9,1.3,2.7,338.4,0.00,6.5,15.5,"20:46:56",1
"20/04/29","21:00",0.0,13.8,62.5,1015.2,325.4,1.8,2.9,341.5,0.00,6.8,15.4,"20:58:40",1
"20/04/29","21:10",0.0,13.9,62.8,1014.9,306.9,1.7,3.2,330.5,0.00,7.0,15.4,"21:02:08",1
"20/04/29","21:20",0.0,14.0,62.8,1014.9,329.3,1.5,3.3,346.6,0.00,7.1,15.2,"21:11:44",1
"20/04/29","21:30",0.0,13.6,63.9,1014.9,328.1,1.6,2.2,340.4,0.00,6.9,15.2,"21:27:04",1
"20/04/29","21:40",0.0,12.8,65.5,1014.9,313.1,1.2,2.0,306.0,0.00,6.5,15.1,"21:32:00",1
"20/04/29","21:50",0.0,12.4,66.6,1015.2,308.9,1.2,1.9,323.8,0.00,6.4,14.9,"21:48:06",1
"20/04/29","22:00",0.0,12.1,67.9,1014.7,321.0,1.6,2.2,331.3,0.00,6.4,14.8,"21:56:54",1
"20/04/29","22:10",0.0,12.0,68.7,1014.9,319.8,1.5,1.8,323.6,0.00,6.5,14.9,"22:00:10",1
"20/04/29","22:20",0.0,11.7,69.5,1015.4,311.2,1.5,1.9,318.0,0.00,6.4,14.7,"22:11:54",1
"20/04/29","22:30",0.0,11.6,70.2,1015.2,297.5,1.5,1.9,318.1,0.00,6.4,14.6,"22:20:58",1
"20/04/29","22:40",0.0,11.5,70.8,1015.4,312.9,1.6,2.1,317.7,0.00,6.4,14.6,"22:36:10",1
"20/04/29","22:50",0.0,11.5,71.3,1015.4,303.8,1.5,2.1,310.3,0.00,6.5,14.6,"22:46:24",1
"20/04/29","23:00",0.0,11.2,71.9,1015.2,327.6,1.7,2.1,331.4,0.00,6.4,14.5,"22:50:56",1
"20/04/29","23:10",0.0,11.0,72.8,1014.9,298.0,1.6,2.5,307.4,0.00,6.4,14.4,"23:08:00",1
"20/04/29","23:20",0.0,10.9,73.5,1014.9,305.4,1.6,2.4,319.1,0.00,6.4,14.2,"23:10:24",1
"20/04/29","23:30",0.0,10.7,74.0,1015.2,311.8,1.7,2.0,314.4,0.00,6.3,14.2,"23:20:40",1
"20/04/29","23:40",0.0,10.7,74.6,1015.2,285.3,1.3,1.8,271.5,0.00,6.4,14.2,"23:33:12",1
"20/04/29","23:50",0.0,10.6,75.0,1014.9,297.8,1.1,1.7,281.0,0.00,6.4,14.0,"23:43:12",1
"20/04/29","24:00",0.0,10.4,75.2,1015.2,311.4,1.3,1.8,316.0,0.00,6.2,13.8,"23:52:32",1
